COSMOS 1275 DEB, 42164

Orbit data source: Space-Track

COSMOS 1275 DEB, 42164 is space debris in LEO originally from a launch on Thu, 04 Jun 1981 UTC launched from the Plesetsk Missile And Space Complex (PKMTR). Debris objects in space refer to the collection of defunct objects orbiting the Earth. Examples of debris include non-operational satellites, rocket bodies, and fragments generated from explosions, collisions, or faulty payload assembly.

Loading next visibility...
Identifier
42164, 1981-053SC
Orbit
LEO
Country
Flag of CISCIS
Related business
Manufacturer
Unknown
Mission
Spacecraft
Bus & Motor
Unknown
Mass
Unknown
Launch date (UTC)
1981-06-04 (45 years ago)
Launch vehicle
Unknown
Launch site
Plesetsk Missile And Space Complex (PKMTR)
Object type
Payload
Rocket body
Debris
Shape & HBR
Unknown shape, 0.1 m
Radar Cross Section
Small (<0.1 m²)

Expand to show TLE details & history
Last TLE update: 4 weeks ago

TLE from 4 weeks ago
0 COSMOS 1275 DEB
1 42164U 81053SC  25324.25574426  .00010482  00000-0  24146-2 0  9999
2 42164  82.9183 156.0900 0023591 323.3790  36.5797 14.55098026625143
Epoch: 2025-11-20T06:08Z
TLE epoch observation values (Epoch: 2025-11-20T06:08:16.304Z)
Latitude
0.00003°
Longitude
4.50633°
Altitude
698.642 km
Speed
7.514 km/s
True Right ascension
10h 24m 21s
True Declination
0° 00' 00"
Sunlit
Object was in daylight at epoch
Visualization orbit readout
Latitude
Unknown
Longitude
Unknown
Altitude
Unknown
Speed
Unknown
Apparent Right ascension
Unknown
Apparent Declination
Unknown
Sunlit
N/A
Visualization observer readout
Local Sidereal Time
03:26:41
Azimuth
Unknown
Elevation
Unknown
Doppler factor
Unknown
Orbital elements
Apogee altitude
722.799 km
Perigee altitude
689.374 km
Semi-major axis
7,084.223 km
Eccentricity
0.00236
Inclination
82.9183°
RAAN
156.09°
Arg. of periapsis
323.379°
True anomaly
36.74118°
Mean anomaly
36.5797°
Eccentric anomaly
36.6604°
Mean motion
3.64003 °/min
Orbital period
98.9 mins
BSTAR
0.0024146
Loading maneuver chart data...
Computing Atmospheric mass density...
Loading historical data...
Loading historical data...
Loading historical data...
Loading historical data...
Loading historical data...
Loading historical data...
Loading historical data...

Documentation

Showing up to 5 results
|